This is the latest recevied weather packets stored in our database for station/object K8JMX-13. If no packets are shown the sender has not sent any weather packets the latest 10 day(s).
| Time | Temp. | Humidity | Pressure | Rain* | Wind** | Luminosity | Snow |
|---|---|---|---|---|---|---|---|
| 1777481278 | 13.33° C | 91% | 1008 hPa | 3.05 mm | - | 101 W/m² | - |
| 1777480975 | 13.33° C | 91% | 1007.8 hPa | 3.05 mm | - | 118 W/m² | - |
| 1777480671 | 13.33° C | 91% | 1007.9 hPa | 1.78 mm | - | 124 W/m² | - |
| 1777480368 | 13.33° C | 91% | 1008.2 hPa | 0 mm | - | 85 W/m² | - |
| 1777480064 | 13.33° C | 91% | 1007.8 hPa | 1.27 mm | - | 94 W/m² | - |
| 1777479760 | 13.33° C | 91% | 1007.7 hPa | 1.27 mm | - | 89 W/m² | - |
| 1777479459 | 12.78° C | 91% | 1008 hPa | 1.78 mm | - | 82 W/m² | - |
| 1777479155 | 13.33° C | 91% | 1008 hPa | 1.27 mm | - | 42 W/m² | - |
| 1777478852 | 12.78° C | 91% | 1008.1 hPa | 6.1 mm | - | 37 W/m² | - |
| 1777478548 | 12.78° C | 91% | 1008 hPa | 7.87 mm | - | 39 W/m² | - |
| 1777478246 | 12.78° C | 91% | 1008.3 hPa | 6.1 mm | - | 25 W/m² | - |
| 1777477941 | 12.78° C | 91% | 1008.3 hPa | 7.87 mm | - | 29 W/m² | - |
| 1777477637 | 12.78° C | 91% | 1008.3 hPa | 6.1 mm | - | 26 W/m² | - |
| 1777477334 | 12.78° C | 91% | 1008.6 hPa | 6.1 mm | - | 21 W/m² | - |
| 1777477030 | 12.78° C | 91% | 1008.8 hPa | 4.32 mm | - | 19 W/m² | - |
| 1777476728 | 12.78° C | 91% | 1008.9 hPa | 1.27 mm | - | 19 W/m² | - |
| 1777476424 | 12.78° C | 91% | 1008.8 hPa | 0 mm | - | 29 W/m² | - |
| 1777476121 | 12.78° C | 91% | 1008.5 hPa | 0 mm | - | 26 W/m² | - |
| 1777475817 | 12.78° C | 91% | 1008.4 hPa | 0 mm | - | 38 W/m² | - |
| 1777475513 | 12.78° C | 91% | 1008.3 hPa | 0 mm | - | 47 W/m² | - |
| 1777475210 | 12.78° C | 91% | 1008.6 hPa | 0 mm | - | 49 W/m² | - |
| 1777474905 | 12.78° C | 91% | 1008.2 hPa | 0 mm | - | 76 W/m² | - |
| 1777474601 | 12.78° C | 92% | 1008.4 hPa | 0 mm | - | 88 W/m² | - |
| 1777474298 | 12.78° C | 91% | 1008.3 hPa | 0 mm | - | 86 W/m² | - |
| 1777473994 | 12.78° C | 91% | 1008.4 hPa | 0 mm | - | 57 W/m² | - |
* Rain latest hour (hover to see other rain measurements)
** Current wind speed in m/s (hover to see current wind gust speed)